Find ICEYE-X64

NORAD ID: 67373 Int'l Des: 2026-004 Owner: PUOL Country: FI operational
LEOCIRCULARRETROGRADESSO

現在のビュー

3D地球を読み込み中...

About ICEYE-X64

ICEYE-X64 (NORAD 67373) is a satellite launched Jan 11, 2026 by PUOL of FI. It operates in LEO, CIRCULAR, RETROGRADE, SSO orbit with a mass of 120.00 kg.

次回通過

Passes for default location (London). Set your location on the main map for personalized predictions.

高度履歴

Loading altitude history...

軌道要素

1 67373U 26004L 26194.88809183 .00000675 00000-0 79438-4 0 9998
2 67373 97.8026 193.0310 0007311 57.5256 302.6666 14.87985299 27267
Epoch: Jul 13, 2026 • Age: 6 hours

現在のステータス

高度 615.0 km
遠地点 / 近地点 N/A
速度 7.55 km/s
衛星直下点 -17.14°S, 33.28°E
打ち上げ日 Jan 11, 2026
運用期間 0.5 years
タイプ other

技術仕様

分類 Payload
質量 120.00 kg
乾燥質量 120.00 kg
総質量 120.00 kg
長さ 0.80 m
直径 0.60 m
スパン 1.50 m
形状 Box + pan
製造者 ICEYE
バスタイプ ICEYE
フェーズステータス In Orbit
所有者/国 PUOL/FI

Most Searched